SP3OTE-2 Weather Reports


time (UTC)temp
C
wind
direction
speed
KPH
gust
KPH
rain 1hr
cm
rain 24hr
cm
rain mn
cm
humidity
%
barometer
mb
20260504050604 15 0.0 0.0 0.00 0.00 0.00 47 1014.3
20260504045604 14 0.0 0.0 0.00 0.00 0.00 48 1014.3
20260504044604 14 0.0 0.0 0.00 0.00 0.00 48 1014.2
20260504043603 13 0.0 0.0 0.00 0.00 0.00 49 1014.1
20260504042603 13 0.0 0.0 0.00 0.00 0.00 49 1013.9
20260504041603 13 0.0 0.0 0.00 0.00 0.00 49 1013.9
20260504040603 13 0.0 0.0 0.00 0.00 0.00 49 1013.9
20260504035602 12 0.0 0.0 0.00 0.00 0.00 50 1013.8
20260504034602 12 0.0 0.0 0.00 0.00 0.00 50 1013.7
20260504033602 12 0.0 0.0 0.00 0.00 0.00 50 1013.7
20260504032602 12 0.0 0.0 0.00 0.00 0.00 50 1013.7
20260504031602 12 0.0 0.0 0.00 0.00 0.00 50 1013.7
20260504030601 12 0.0 0.0 0.00 0.00 0.00 50 1013.6
20260504025601 12 0.0 0.0 0.00 0.00 0.00 50 1013.7
20260504024601 12 0.0 0.0 0.00 0.00 0.00 50 1013.7
20260504023600 12 0.0 0.0 0.00 0.00 0.00 49 1013.5
20260504022600 12 0.0 0.0 0.00 0.00 0.00 49 1013.5
20260504021600 12 0.0 0.0 0.00 0.00 0.00 49 1013.5
20260504020559 12 0.0 0.0 0.00 0.00 0.00 48 1013.6
20260504015559 12 0.0 0.0 0.00 0.00 0.00 48 1013.6
20260504014559 12 0.0 0.0 0.00 0.00 0.00 48 1013.7
20260504013559 13 0.0 0.0 0.00 0.00 0.00 47 1013.8
20260504012558 13 0.0 0.0 0.00 0.00 0.00 47 1013.7
20260504011558 13 0.0 0.0 0.00 0.00 0.00 47 1013.8
20260504010558 13 0.0 0.0 0.00 0.00 0.00 47 1013.8
20260504005558 13 0.0 0.0 0.00 0.00 0.00 47 1013.8
20260504004557 13 0.0 0.0 0.00 0.00 0.00 46 1013.8
20260504003557 14 0.0 0.0 0.00 0.00 0.00 46 1013.8
20260504002557 14 0.0 0.0 0.00 0.00 0.00 45 1013.7
20260504001557 14 0.0 0.0 0.00 0.00 0.00 45 1013.7
20260504000556 14 0.0 0.0 0.00 0.00 0.00 45 1013.8
20260503235556 15 0.0 0.0 0.00 0.00 0.00 45 1013.9
20260503234556 15 0.0 0.0 0.00 0.00 0.00 44 1014.0
20260503233556 15 0.0 0.0 0.00 0.00 0.00 44 1013.9
20260503232555 15 0.0 0.0 0.00 0.00 0.00 44 1013.9
20260503231555 15 0.0 0.0 0.00 0.00 0.00 44 1014.0
20260503230555 16 0.0 0.0 0.00 0.00 0.00 44 1014.1
20260503225555 16 0.0 0.0 0.00 0.00 0.00 44 1014.1
20260503224554 16 0.0 0.0 0.00 0.00 0.00 44 1014.1
20260503223554 16 0.0 0.0 0.00 0.00 0.00 44 1014.2
20260503222554 16 0.0 0.0 0.00 0.00 0.00 44 1014.2
20260503221554 16 0.0 0.0 0.00 0.00 0.00 44 1014.2
20260503220553 17 0.0 0.0 0.00 0.00 0.00 43 1014.2
20260503215553 17 0.0 0.0 0.00 0.00 0.00 44 1014.3
20260503214553 17 0.0 0.0 0.00 0.00 0.00 43 1014.3
20260503213552 17 0.0 0.0 0.00 0.00 0.00 43 1014.3
20260503212552 17 0.0 0.0 0.00 0.00 0.00 43 1014.4
20260503211552 17 0.0 0.0 0.00 0.00 0.00 43 1014.4
20260503210552 17 0.0 0.0 0.00 0.00 0.00 43 1014.3
20260503205551 18 0.0 0.0 0.00 0.00 0.00 43 1014.4
20260503204551 18 0.0 0.0 0.00 0.00 0.00 43 1014.3
20260503203551 18 0.0 0.0 0.00 0.00 0.00 42 1014.4
20260503202550 18 0.0 0.0 0.00 0.00 0.00 42 1014.4
20260503201550 18 0.0 0.0 0.00 0.00 0.00 41 1014.3
20260503200550 18 0.0 0.0 0.00 0.00 0.00 41 1014.3
20260503195550 19 0.0 0.0 0.00 0.00 0.00 40 1014.3
20260503194550 19 0.0 0.0 0.00 0.00 0.00 40 1014.3
20260503193549 20 0.0 0.0 0.00 0.00 0.00 40 1014.4
20260503192549 20 0.0 0.0 0.00 0.00 0.00 39 1014.2
20260503191549 20 0.0 0.0 0.00 0.00 0.00 39 1014.3
20260503190549 21 0.0 0.0 0.00 0.00 0.00 38 1014.2
20260503185548 21 0.0 0.0 0.00 0.00 0.00 37 1014.0
20260503184548 21 0.0 0.0 0.00 0.00 0.00 37 1014.0
20260503183548 22 0.0 0.0 0.00 0.00 0.00 36 1013.9
20260503182548 22 0.0 0.0 0.00 0.00 0.00 35 1013.7
20260503181547 23 0.0 0.0 0.00 0.00 0.00 34 1013.7
20260503180547 24 0.0 0.0 0.00 0.00 0.00 33 1013.6
20260503175547 25 0.0 0.0 0.00 0.00 0.00 33 1013.5
20260503174547 25 0.0 0.0 0.00 0.00 0.00 32 1013.4
20260503173546 27 0.0 0.0 0.00 0.00 0.00 29 1013.4
20260503172546 30 0.0 0.0 0.00 0.00 0.00 27 1013.4
20260503171546 31 0.0 0.0 0.00 0.00 0.00 26 1013.3
20260503170546 32 0.0 0.0 0.00 0.00 0.00 25 1013.3
20260503150541 34 0.0 0.0 0.00 0.00 0.00 25 1013.6
20260503130538 30 0.0 0.0 0.00 0.00 0.00 27 1015.1
20260503110535 25 0.0 0.0 0.00 0.00 0.00 31 1016.6
20260503081531 20 0.0 0.0 0.00 0.00 0.00 45 1017.9
20260503080531 19 0.0 0.0 0.00 0.00 0.00 47 1017.9
20260503072529 17 0.0 0.0 0.00 0.00 0.00 49 1018.0
20260503071530 17 0.0 0.0 0.00 0.00 0.00 49 1018.0
20260503070529 16 0.0 0.0 0.00 0.00 0.00 51 1018.0